Miscellaneous Local Product
Issued by NWS Hastings, NE

Home | Current Version | Previous Version | Text Only | Print | Product List | Glossary Off
Versions: 1 2 3 4 5 6 7 8 9 10 11 12 13 14 15 16 17 18 19 20 21 22 23 24 25 26 27 28 29 30 31 32 33 34 35 36 37 38 39 40 41 42 43 44 45 46 47 48 49 50

000
AXUS43 KGID 282102
MISGRI

GID CWA HOURLY WEATHER ROUNDUP
NATIONAL WEATHER SERVICE HASTINGS NE
400 PM CDT SAT MAR 28 2015

NOTE: "FAIR" INDICATES FEW OR NO CLOUDS BELOW 12,000 FEET WITH NO
SIGNIFICANT WEATHER AND/OR OBSTRUCTIONS TO VISIBILITY.

...SOUTH CENTRAL NEBRASKA...

CITY           SKY/WX    TMP DP  RH WIND       PRES   REMARKS
GRAND ISLAND   SUNNY     60  33  36 SE16G24   29.99F
HASTINGS       SUNNY     62  34  35 SE14G23   29.98F
KEARNEY        SUNNY     66  34  30 S15       29.96F
ORD            SUNNY     62  31  31 S14G26    29.93F
YORK           SUNNY     55  34  44 S15G21    30.02F
AURORA         SUNNY     59  32  37 S14       30.00F
LEXINGTON      SUNNY     70  35  27 S13G22    29.93F
HOLDREGE       SUNNY     65  32  28 S13       29.97F
HEBRON         SUNNY     60  31  33 SE10G18   30.02F

...NEBRASKA PANHANDLE...

CITY           SKY/WX    TMP DP  RH WIND       PRES   REMARKS
CHADRON        SUNNY     81  29  15 NW12G21   29.73F
ALLIANCE       SUNNY     81  33  17 W16G23    29.80F
SCOTTSBLUFF    SUNNY     81  25  12 W16G25    29.82F
SIDNEY         SUNNY     77  24  14 W20G36    29.87F

...WESTERN AND NORTH CENTRAL NEBRASKA...

CITY           SKY/WX    TMP DP  RH WIND       PRES   REMARKS
VALENTINE      SUNNY     76  32  20 S17G25    29.79F
AINSWORTH      SUNNY     70  35  27 S17       29.86F
ONEILL         SUNNY     60  32  34 S20G26    29.93F
BROKEN BOW     SUNNY     68  36  30 SE15G25   29.92F
IMPERIAL         N/A     79  29  16 S13G22    29.87F
NORTH PLATTE   SUNNY     76  35  22 S12G28    29.88F
MCCOOK         SUNNY     78  34  20 S9G21     29.91F

...EASTERN NEBRASKA...

CITY           SKY/WX    TMP DP  RH WIND       PRES   REMARKS
NORFOLK        SUNNY     54  33  45 SE20G25   30.00F
SO SIOUX CITY  SUNNY     55  27  34 S17G24    30.05F
TEKAMAH        SUNNY     55  27  34 SE21G37   30.06F
COLUMBUS       SUNNY     54  32  43 SE14G21   30.04F
ALBION         SUNNY     56  31  38 S16       29.99F
OMAHA EPPLEY   MOSUNNY   53  28  38 S15G24    30.08F
OFFUTT AFB     SUNNY     54  30  39 S14G22    30.08S
MILLARD        SUNNY     53  31  43 SE13G20   30.08F
LINCOLN        SUNNY     56  32  40 SE18      30.06F
NEBRASKA CITY  SUNNY     52  28  38 SE12G20   30.09F
BEATRICE       SUNNY     55  33  44 SE12G17   30.05F
FALLS CITY     SUNNY     54  31  41 SE13G23   30.09F

...NORTHERN KANSAS...

CITY           SKY/WX    TMP DP  RH WIND       PRES   REMARKS
GOODLAND       SUNNY     80  24  12 VRB7G21   29.92F
HILL CITY      SUNNY     74  36  25 S13G20    29.95F
NORTON         CLEAR     73  30  20 SE13G20   29.94F
PHILLIPSBURG   SUNNY     72  36  26 SE13      29.97F
SMITH CENTER   SUNNY     66  36  32 SE12      29.99S
BELOIT         SUNNY     66  34  30 SE12      29.98F
HAYS           SUNNY     72  39  30 SE14G20   29.96F
RUSSELL        SUNNY     72  38  29 SE14G20   29.96F
CONCORDIA      SUNNY     64  34  32 SE14      30.00F
SALINA         SUNNY     67  37  33 SE16      30.00F
TOPEKA         SUNNY     56  32  40 E14G21    30.09F



USA.gov is the U.S. government's official web portal to all federal, state and local government web resources and services.